Location: St. Louis
(38.6270°N, 90.1994°W)
Time: 14:48:58
(UTC-06:00)

S-56A Canister/Altair - Pass Details

Date: 02 December 2021
Orbit: 633 x 2499 km, 38.9° (Epoch: 19 January)

Event Time Altitude Azimuth Distance (km) Brightness Sun altitude
Rises 23:27:40 0° 231° (SW) 5,465 - -72.8°
Reaches altitude 10° 23:31:48 10° 227° (SW) 4,191 - -73.0°
Maximum altitude 23:41:52 51° 156° (SSE) 1,646 - -73.4°
Drops below altitude 10° 23:48:33 10° 82° (E) 2,826 - -73.5°
Sets 23:50:50 0° 77° (ENE) 3,588 - -73.5°
